Flag for Russia Weather past 2 weeks in Nizhny Novgorod, Russia

Now
18 °F

Overcast.


Feels Like: 4 °F
Forecast: 32 / 38 °F
Wind: 13 mph from South

Location: Nizhny Novgorod/Strigino

Current Time: Jan 31, 2015 at 4:41:49 AM

Latest Report: Jan 31, 2015 at 4:00 AM


Visibility: 6 mi

Pressure: 29.95 "Hg

Humidity: 79%

Dew point: 12 °F

Location of Nizhny NovgorodLocation

Historic Weather in Nizhny Novgorod — Graph

°F

Nizhny Novgorod temperature yesterday

Maximum temperature yesterday: 25 °F (at 12:00 AM)
Minimum temperature yesterday: 14 °F (at 8:00 PM)
Average temperature yesterday: 20 °F

Past Weeks' High & Low Weather Summary

 TemperatureHumidityPressure
High34 °F (Jan 17, 1:00 PM)100% (Jan 16, 10:00 AM)30.66 "Hg (Jan 16, 10:00 AM)
Low-9 °F (Jan 21, 3:00 AM)37% (Jan 26, 12:00 PM)29.89 "Hg (Jan 18, 7:30 AM)
Average18 °F79%30.23 "Hg
* Reported Jan 16 3:00 AM — Jan 31 3:30 AM, Nizhny Novgorod, Weather by CustomWeather, © 2014

Note: Actual official high and low records may vary slightly from our data, if they occured in-between our weather recording intervals... More about our weather records

Advertising

Nizhny Novgorod weather history for previous 24 hours

 ConditionsComfort  
Time TempWeatherWind HumidityBarometerVisibility
3:30 AM
Jan 31
16 °FOvercast.10 mph86%29.95 "Hg6 mi
3:00 AM16 °FOvercast.10 mph79%29.95 "Hg6 mi
2:30 AM16 °FOvercast.10 mph79%29.95 "Hg6 mi
2:00 AM16 °FOvercast.10 mph79%29.95 "Hg6 mi
1:30 AM16 °FOvercast.10 mph79%29.95 "Hg3 mi
1:00 AM16 °FOvercast.8 mph79%29.95 "Hg6 mi
12:30 AM14 °FOvercast.10 mph79%29.95 "Hg6 mi
11:30 PM
Jan 30
14 °FOvercast.10 mph79%29.95 "HgN/A
11:00 PM14 °FLight snow. Overcast.8 mph79%29.95 "Hg6 mi
10:30 PM14 °FMostly cloudy.10 mph79%29.92 "Hg6 mi
10:00 PM14 °FMostly cloudy.10 mph79%29.95 "HgN/A
9:30 PM14 °FMostly cloudy.10 mph79%29.95 "HgN/A
9:00 PM14 °FMostly cloudy.10 mph79%29.95 "HgN/A
8:30 PM14 °FMostly cloudy.10 mph79%29.95 "HgN/A
8:00 PM14 °FMostly cloudy.8 mph79%29.95 "HgN/A
7:30 PM16 °FMostly cloudy.10 mph79%29.95 "HgN/A
7:00 PM18 °FMostly cloudy.10 mph86%29.95 "HgN/A
6:30 PM18 °FOvercast.10 mph79%29.95 "HgN/A
6:00 PM18 °FOvercast.13 mph79%29.95 "HgN/A
5:30 PM18 °FLow clouds.10 mph86%29.95 "HgN/A
5:00 PM21 °FOvercast.8 mph86%29.95 "HgN/A
4:30 PM21 °FOvercast.10 mph80%29.95 "HgN/A
4:00 PM21 °FOvercast.10 mph80%29.95 "HgN/A
3:30 PM21 °FOvercast.8 mph80%29.95 "HgN/A
3:00 PM21 °FPartly sunny.8 mph80%29.95 "HgN/A
2:30 PM19 °FPartly sunny.10 mph79%29.95 "HgN/A
2:00 PM23 °FSunny.10 mph63%29.95 "Hg10 mi
1:30 PM23 °FMostly cloudy.10 mph63%29.95 "HgN/A
1:00 PM25 °FMostly cloudy.13 mph59%29.95 "HgN/A
12:30 PM23 °FMostly cloudy.13 mph63%29.92 "HgN/A
12:00 PM23 °FMostly cloudy.13 mph74%29.92 "HgN/A
11:30 AM23 °FCloudy.8 mph80%29.92 "Hg6 mi
11:00 AM23 °FCloudy.8 mph80%29.92 "HgN/A
10:30 AM21 °FCloudy.10 mph86%29.95 "HgN/A
10:00 AM21 °FLight snow. Mostly cloudy.13 mph93%29.92 "Hg3 mi
9:30 AM21 °FLight snow. Overcast.10 mph93%29.92 "Hg2 mi
9:00 AM21 °FLight snow. Overcast.10 mph93%29.92 "Hg6 mi
8:30 AM21 °FSnow flurries. Overcast.10 mph93%29.92 "Hg3 mi
8:00 AM21 °FSnow showers. Low clouds.8 mph100%29.92 "Hg1 mi
7:30 AM23 °FSnow showers. Low clouds.10 mph93%29.92 "Hg1 mi
7:00 AM23 °FSnow showers. Low clouds.10 mph93%29.92 "Hg1 mi
6:30 AM23 °FSnow showers. Low clouds.10 mph93%29.92 "Hg1 mi
5:30 AM23 °FSnow flurries. Overcast.10 mph86%29.89 "Hg1 mi
5:00 AM23 °FOvercast.10 mph86%29.89 "HgN/A
4:30 AM23 °FOvercast.10 mph86%29.89 "HgN/A
4:00 AM23 °FOvercast.13 mph86%29.89 "HgN/A
Weather by CustomWeather, © 2014

See weather overviewHow to use our weather pages